Location: ???????
(55.4362°N, 38.1183°E)
Time: 16:35:14
(UTC+00:00)

Cosmos 2333 Rocket - Pass Details

Date: 25 October 2021
Orbit: 837 x 865 km, 70.8° (Epoch: 04 December)

Event Time Altitude Azimuth Distance (km) Brightness Sun altitude
Exits shadow 23:39:02 29° 31° (NNE) 1,541 3.9 -38.4°
Maximum altitude 23:39:03 29° 32° (NNE) 1,541 3.9 -38.4°
Drops below altitude 10° 23:44:02 10° 91° (E) 2,508 5.1 -37.8°
Sets 23:46:50 0° 103° (ESE) 3,445 5.8 -37.5°
